THOR ABLESTAR DEB, 144

Orbit data source: Space-Track

THOR ABLESTAR DEB, 144 is space debris in LEO originally from a launch on Thu, 29 Jun 1961 UTC launched from the Air Force Eastern Test Range (AFETR). Debris objects in space refer to the collection of defunct objects orbiting the Earth. Examples of debris include non-operational satellites, rocket bodies, and fragments generated from explosions, collisions, or faulty payload assembly.

Loading next visibility...
THOR ABLESTAR DEB details
Identifier
144, 1961-015AE
Orbit
LEO
Last TLE update12 hours ago
Origin
Flag of USUSAF SSD (US)
ManufacturerUnknown
MissionSpacecraft
Bus & MotorUnknown
MassUnknown
Launch date (UTC)
1961-06-29 (64 years ago)
Launch vehicleUnknown
Launch site
Air Force Eastern Test Range (AFETR)
Object type
Payload
Rocket body
Debris
Shape & HBRUnknown
Radar Cross SectionSmall (<0.1 m²)

Expand to show TLE details & history

TLE from 12 hours ago
0 THOR ABLESTAR DEB
1 00144U 61015AE  25013.93848624  .00000285  00000-0  28650-3 0  9996
2 00144  66.4977 232.7661 0046028 324.0073  35.7906 13.91253094212402
Epoch: 2025-01-13T22:31Z
Definitive object data (Epoch: 2025-01-13T22:31:25.211Z)
Latitude0.00001°
Longitude141.2587°
Altitude899.082 km
Speed7.417 km/s
True Right ascension15h 31m 03s
True Declination0° 00' 00"
Sunlit
Object was in daylight at TLE epoch
Visualization TLE readout
Latitude14.48808°
Longitude146.42454°
Altitude904.859 km
Speed7.412 km/s
Apparent Right ascension18h 35m 10s
Apparent Declination-17° 56' 11"
Sunlit
Object is in daylight
Visualization observer readout
Local Sidereal Time11:16:40
Azimuth91.991° ESE
Elevation-26.277°
Doppler factor1
Orbital elements
Apogee altitude956.275 km
Perigee altitude889.066 km
Semi-major axis7,300.808 km
Eccentricity0.0046028
Inclination66.4977°
RAAN232.7661°
Arg. of periapsis324.0073°
True anomaly36.10051°
Mean anomaly35.7906°
Eccentric anomaly35.94541°
Mean motion3.47926 °/min
BSTAR0.0002865
Orbital period103.47 mins
Loading maneuver chart data...

THOR ABLESTAR DEB Visibility forecast

Observer location: undefined°, undefined

Span
Click to sort rows by Start time (UTC) header in descending order
Start Az.
Max El. time (UTC)
Max El. Az.
Max El.
End time (UTC)
End Az.
11 mins2025-01-14 15:53:32.047Z199.119° SSW2025-01-14 15:58:32.047Z148.131° SSE43.286°2025-01-14 16:04:32.047Z33.646° NE
8 mins2025-01-14 17:42:32.047Z275.255° WNW2025-01-14 17:45:32.047Z309.767° NW20.199°2025-01-14 17:50:32.047Z4.96° NNE
5 mins2025-01-14 23:13:32.047Z19.577° NNE2025-01-14 23:15:32.047Z41.453° NE15.286°2025-01-14 23:18:32.047Z71.621° E
10 mins2025-01-15 00:58:32.047Z337.051° NNW2025-01-15 01:02:32.047Z34.989° NE43.544°2025-01-15 01:08:32.047Z143.705° SSE
6 mins2025-01-15 02:46:32.047Z279.347° WNW2025-01-15 02:48:32.047Z256.762° W17.076°2025-01-15 02:52:32.047Z216.261° SW
|